When you browse on this site, cookies collect data to enhance your experience and personalize the content and advertising you see.
Visit our Privacy Policy to learn more. By continuing to use the site, you agree to this use of cookies and data.
  • In United Kingdom
  • List of Countries
  • For 7 days
  • Water Temperature
  • Weather Map
  • Weather Widgets
  • user-avatar
    Login

    Hourly Weather Or Yehuda

    Today, 20 October, Sunday

    Time Temperature Precipitation Wind Pressure Humidity
    00:00 +24°C° 0 mm 1 mps 760 mmHg 79%
    01:00 +23°C° 0 mm 1 mps 760 mmHg 80%
    02:00 +23°C° 0 mm 1 mps 760 mmHg 80%
    03:00 +23°C° 0 mm 1 mps 760 mmHg 80%
    04:00 +23°C° 0 mm 1 mps 760 mmHg 81%
    05:00 +22°C° 0 mm 1 mps 760 mmHg 82%
    06:00 +24°C° 0 mm 1 mps 760 mmHg 77%
    07:00 +25°C° 0 mm 1 mps 760 mmHg 72%
    08:00 +26°C° 0 mm 1 mps 760 mmHg 67%
    09:00 +27°C° 0 mm 1 mps 760 mmHg 62%
    10:00 +28°C° 0 mm 2 mps 761 mmHg 57%
    11:00 +29°C° 0 mm 3 mps 761 mmHg 51%
    12:00 +29°C° 0 mm 4 mps 760 mmHg 51%
    13:00 +29°C° 0 mm 4 mps 760 mmHg 50%
    14:00 +30°C° 0 mm 5 mps 759 mmHg 50%
    15:00 +29°C° 0 mm 4 mps 759 mmHg 55%
    16:00 +28°C° 0 mm 4 mps 759 mmHg 60%
    17:00 +27°C° 0 mm 4 mps 760 mmHg 65%
    18:00 +26°C° 0 mm 3 mps 760 mmHg 69%
    19:00 +25°C° 0 mm 2 mps 760 mmHg 73%
    20:00 +25°C° 0 mm 2 mps 759 mmHg 77%
    21:00 +24°C° 0 mm 1 mps 760 mmHg 77%
    22:00 +24°C° 0 mm 1 mps 760 mmHg 77%
    23:00 +22°C° 0 mm 0 mps 760 mmHg 78%

    Tomorrow, 21 October, Monday

    Time Temperature Precipitation Wind Pressure Humidity
    00:00 +21°C° 0 mm 0 mps 759 mmHg 79%
    01:00 +23°C° 0 mm 1 mps 759 mmHg 80%
    02:00 +23°C° 0 mm 1 mps 758 mmHg 81%
    03:00 +22°C° 0 mm 1 mps 758 mmHg 81%
    04:00 +22°C° 0 mm 1 mps 758 mmHg 81%
    05:00 +22°C° 0 mm 1 mps 758 mmHg 81%
    06:00 +23°C° 0 mm 1 mps 759 mmHg 76%
    07:00 +24°C° 0 mm 1 mps 759 mmHg 71%
    08:00 +26°C° 0 mm 1 mps 759 mmHg 67%
    09:00 +27°C° 0 mm 1 mps 759 mmHg 62%
    10:00 +28°C° 0 mm 2 mps 759 mmHg 57%
    11:00 +29°C° 0 mm 2 mps 759 mmHg 53%
    12:00 +29°C° 0 mm 3 mps 758 mmHg 52%
    13:00 +29°C° 0 mm 4 mps 758 mmHg 51%
    14:00 +29°C° 0 mm 4 mps 757 mmHg 50%
    15:00 +28°C° 0 mm 4 mps 757 mmHg 54%
    16:00 +27°C° 0 mm 3 mps 757 mmHg 57%
    17:00 +27°C° 0 mm 3 mps 757 mmHg 61%
    18:00 +26°C° 0 mm 3 mps 757 mmHg 63%
    19:00 +25°C° 0 mm 2 mps 757 mmHg 66%
    20:00 +25°C° 0 mm 2 mps 757 mmHg 69%
    21:00 +24°C° 0 mm 2 mps 757 mmHg 70%
    22:00 +24°C° 0 mm 2 mps 756 mmHg 71%
    23:00 +24°C° 0 mm 2 mps 756 mmHg 72%

    Day after tomorrow, 22 October, Tuesday

    Time Temperature Precipitation Wind Pressure Humidity
    00:00 +23°C° 0 mm 1 mps 756 mmHg 73%
    01:00 +23°C° 0 mm 1 mps 755 mmHg 74%
    02:00 +23°C° 0 mm 1 mps 755 mmHg 74%
    03:00 +23°C° 0.1 mm 1 mps 755 mmHg 73%
    04:00 +23°C° 0.1 mm 2 mps 755 mmHg 71%
    05:00 +24°C° 0.1 mm 2 mps 755 mmHg 70%
    06:00 +25°C° 0 mm 2 mps 755 mmHg 63%
    07:00 +26°C° 0 mm 3 mps 755 mmHg 57%
    08:00 +27°C° 0 mm 3 mps 756 mmHg 50%
    09:00 +28°C° 0 mm 4 mps 755 mmHg 46%
    10:00 +29°C° 0 mm 4 mps 755 mmHg 42%
    11:00 +30°C° 0 mm 5 mps 755 mmHg 38%
    12:00 +30°C° 0 mm 6 mps 755 mmHg 40%
    13:00 +30°C° 0 mm 7 mps 754 mmHg 42%
    14:00 +31°C° 0 mm 8 mps 754 mmHg 44%
    15:00 +28°C° 0 mm 7 mps 754 mmHg 48%
    16:00 +27°C° 0 mm 6 mps 754 mmHg 52%
    17:00 +26°C° 0 mm 6 mps 754 mmHg 55%
    18:00 +26°C° 0 mm 5 mps 754 mmHg 60%
    19:00 +25°C° 0 mm 4 mps 754 mmHg 64%
    20:00 +24°C° 0 mm 3 mps 754 mmHg 68%
    21:00 +24°C° 0 mm 2 mps 754 mmHg 68%
    22:00 +24°C° 0 mm 2 mps 754 mmHg 69%
    23:00 +24°C° 0 mm 2 mps 755 mmHg 69%

    23 October, Wednesday

    Time Temperature Precipitation Wind Pressure Humidity
    00:00 +24°C° 0 mm 1 mps 754 mmHg 70%
    01:00 +24°C° 0 mm 1 mps 754 mmHg 70%
    02:00 +23°C° 0 mm 1 mps 754 mmHg 70%
    03:00 +23°C° 0.3 mm 1 mps 754 mmHg 71%
    04:00 +23°C° 0.3 mm 1 mps 754 mmHg 72%
    05:00 +23°C° 0.3 mm 1 mps 754 mmHg 73%
    06:00 +23°C° 0.6 mm 1 mps 755 mmHg 70%
    07:00 +24°C° 0.6 mm 2 mps 755 mmHg 67%
    08:00 +25°C° 0.6 mm 2 mps 755 mmHg 64%
    09:00 +26°C° 0.5 mm 3 mps 755 mmHg 60%
    10:00 +27°C° 0.5 mm 3 mps 755 mmHg 56%
    11:00 +28°C° 0.5 mm 4 mps 755 mmHg 52%
    12:00 +28°C° 0.6 mm 4 mps 755 mmHg 52%
    13:00 +28°C° 0.6 mm 4 mps 754 mmHg 52%
    14:00 +28°C° 0.6 mm 4 mps 754 mmHg 52%
    15:00 +27°C° 0.1 mm 4 mps 754 mmHg 53%
    16:00 +27°C° 0.1 mm 3 mps 754 mmHg 55%
    17:00 +26°C° 0.1 mm 3 mps 754 mmHg 57%
    18:00 +25°C° 0 mm 3 mps 754 mmHg 59%
    19:00 +25°C° 0 mm 2 mps 755 mmHg 61%
    20:00 +24°C° 0 mm 1 mps 755 mmHg 64%
    21:00 +24°C° 0 mm 1 mps 755 mmHg 64%
    22:00 +24°C° 0 mm 1 mps 755 mmHg 65%
    23:00 +24°C° 0 mm 1 mps 755 mmHg 66%

    24 October, Thursday

    Time Temperature Precipitation Wind Pressure Humidity
    00:00 +24°C° 0.1 mm 1 mps 755 mmHg 66%
    01:00 +23°C° 0.1 mm 2 mps 755 mmHg 66%
    02:00 +23°C° 0.1 mm 2 mps 755 mmHg 66%
    03:00 +23°C° 0.2 mm 2 mps 755 mmHg 68%
    04:00 +23°C° 0.2 mm 2 mps 755 mmHg 69%
    05:00 +22°C° 0.2 mm 3 mps 755 mmHg 70%
    06:00 +22°C° 0.4 mm 3 mps 755 mmHg 69%
    07:00 +24°C° 0.4 mm 3 mps 755 mmHg 68%
    08:00 +24°C° 0.4 mm 3 mps 756 mmHg 67%
    09:00 +25°C° 0.4 mm 3 mps 756 mmHg 62%
    10:00 +26°C° 0.4 mm 3 mps 756 mmHg 57%
    11:00 +27°C° 0.4 mm 3 mps 756 mmHg 52%
    12:00 +27°C° 0.2 mm 4 mps 755 mmHg 51%
    13:00 +27°C° 0.2 mm 4 mps 755 mmHg 50%
    14:00 +28°C° 0.2 mm 5 mps 755 mmHg 50%
    15:00 +27°C° 0.1 mm 4 mps 755 mmHg 52%
    16:00 +26°C° 0.1 mm 4 mps 755 mmHg 55%
    17:00 +26°C° 0.1 mm 3 mps 755 mmHg 58%
    18:00 +26°C° 0.2 mm 3 mps 755 mmHg 60%
    19:00 +25°C° 0.2 mm 2 mps 755 mmHg 62%
    20:00 +25°C° 0.2 mm 2 mps 756 mmHg 64%
    21:00 +24°C° 0.2 mm 1 mps 756 mmHg 64%
    22:00 +24°C° 0.2 mm 1 mps 756 mmHg 65%
    23:00 +22°C° 0.2 mm 0 mps 755 mmHg 65%

    25 October, Friday

    Time Temperature Precipitation Wind Pressure Humidity
    00:00 +21°C° 0 mm 0 mps 755 mmHg 66%
    01:00 +23°C° 0 mm 1 mps 755 mmHg 67%
    02:00 +23°C° 0 mm 1 mps 755 mmHg 68%
    03:00 +23°C° 0.2 mm 1 mps 755 mmHg 69%
    04:00 +23°C° 0.2 mm 1 mps 755 mmHg 70%
    05:00 +21°C° 0.2 mm 2 mps 755 mmHg 70%
    06:00 +23°C° 0.4 mm 2 mps 755 mmHg 66%
    07:00 +24°C° 0.4 mm 3 mps 756 mmHg 61%
    08:00 +25°C° 0.4 mm 3 mps 756 mmHg 57%
    09:00 +26°C° 0.1 mm 4 mps 756 mmHg 54%
    10:00 +27°C° 0.1 mm 4 mps 756 mmHg 51%
    11:00 +27°C° 0.1 mm 5 mps 756 mmHg 48%
    12:00 +27°C° 0.2 mm 5 mps 756 mmHg 50%
    13:00 +27°C° 0.2 mm 5 mps 756 mmHg 52%
    14:00 +27°C° 0.2 mm 6 mps 755 mmHg 54%
    15:00 +26°C° 0.2 mm 5 mps 755 mmHg 56%
    16:00 +26°C° 0.2 mm 4 mps 756 mmHg 59%
    17:00 +25°C° 0.2 mm 3 mps 756 mmHg 62%
    18:00 +25°C° 0 mm 3 mps 756 mmHg 63%
    19:00 +25°C° 0 mm 2 mps 756 mmHg 64%
    20:00 +24°C° 0 mm 2 mps 756 mmHg 66%
    21:00 +24°C° 0.1 mm 2 mps 756 mmHg 66%
    22:00 +24°C° 0.1 mm 2 mps 756 mmHg 67%
    23:00 +24°C° 0.1 mm 2 mps 756 mmHg 68%
    Show more